Luch-1

operational
NORAD ID: 23680 Int'l Des: 1995-054 Owner: VKS Country: RU
HEOCIRCULARGSO

关于 Luch-1

正在加载描述...

实时位置

正在加载3D地球...

即将过境

高度历史

Altitude vs Time

uPlot chart will show altitude changes over time

两行轨道根数

1 23680U 95054A 26060.81886648 -.00000129 00000-0 00000+0 0 9997
2 23680 15.0197 0.0966 0004470 150.5526 19.7403 1.00267106111273
Epoch: Mar 1, 2026 • Age: 54 hours

当前状态

高度 35807.9 km
速度 3.07 km/s
星下点 -9.22°S, 76.94°E
发射日期 Oct 11, 1995
运行时间 30.3 years
类型 other

技术详情

分类 Payload
质量 2400.00 kg
干质量 2200.00 kg
总质量 2400.00 kg
长度 6.60 m
直径 4.10 m
跨度 16.00 m
形状 Cyl + 2 Pan + 2 Dish
制造商 NPOPMR
平台类型 KAUR-4 Al'tair
阶段状态 In Orbit
所有者/国家 VKS/RU

大型星座

Loading constellations...